Starlink 5421

operational
NORAD ID: 54799 Int'l Des: 2022-175 Owner: SPXS Country: US Constellation: starlink
LEOCIRCULAR

About Starlink 5421

Description loading...

Live Position

Loading 3D Globe...

Upcoming Passes

Altitude History

Altitude vs Time

uPlot chart will show altitude changes over time

Two-Line Element Set

1 54799U 22175AT 25260.69009553 .00000507 00000-0 49932-4 0 9996
2 54799 53.2171 75.7103 0001366 88.6118 271.5031 15.08839992154155
Epoch: Sep 17, 2025 • Age: 14 hours

Current Status

Altitude 553.9 km
Velocity 7.58 km/s
Sub-Earth Point -40.47°S, 63.21°W
Launch Date Dec 17, 2022
Age 2.7 years
Type internet

Technical Details

Classification Payload
Mass 305.00 kg
Dry Mass 290.00 kg
Total Mass 305.00 kg
Length 0.20 m
Diameter 2.80 m
Span 9.00 m
Shape Box + pan
Manufacturer SPXS
Bus Type Starlink
Phase Status In Orbit
Owner/State SPXS/US

Large Constellations

Loading constellations...